Regional Weather Roundup
Issued by NWS Wakefield, VA

Home | Current Version | Previous Version | Text Only | Print | Product List | Glossary Off
Versions: 1 2 3 4 5 6 7 8 9 10 11 12 13 14 15 16 17 18 19 20 21 22 23 24 25 26 27 28 29 30 31 32 33 34 35 36 37 38 39 40 41 42 43 44 45 46 47 48 49 50

806
ASUS41 KAKQ 010015
RWRAKQ

REGIONAL WEATHER ROUNDUP
NATIONAL WEATHER SERVICE WAKEFIELD VA
800 PM EDT SAT APR 30 2016

Note: "fair" indicates few or no clouds below 12,000 feet with no
significant weather and/or obstructions to visibility. * = Denotes
station may not report precipitation (e.g., rain,snow,etc.),
thunder or fog.

VAZ042-051-052>054-056-010100-
NORTHERN VIRGINIA

CITY           SKY/WX    TMP DP  RH WIND       PRES   REMARKS
WASH NATIONAL  CLOUDY    56  48  74 SE7       30.20S
DULLES         LGT RAIN  54  48  80 SE6       30.19S
FORT BELVOIR   MOCLDY    55  49  79 E5        30.20S
QUANTICO       CLOUDY    57  50  77 SE6       30.21S
FREDERICKSBRG* LGT RAIN  56  51  84 CALM      30.19S
STAFFORD*      CLOUDY    55  48  79 SE5       30.23F
WARRENTON      RAIN      56  46  71 SE5       30.19R
CULPEPER*      LGT RAIN  55  52  89 CALM      30.20R
MANASSAS*      CLOUDY    55  50  82 SE3       30.20R
LEESBURG*      DRIZZLE   55  52  88 SE6       30.20S
WINCHESTER     LGT RAIN  54  50  87 SE6       30.17S
FRONT ROYAL*   CLOUDY    54  52  94 CALM      30.15S
LURAY*         RAIN      54  54 100 SW5       30.16S
$$

VAZ048-049-060>072-079>083-010100-
CENTRAL AND SOUTH CENTRAL VIRGINIA

CITY           SKY/WX    TMP DP  RH WIND       PRES   REMARKS
RICHMOND       CLOUDY    56  50  80 E7        30.18S
CHESTERFIELD*  CLOUDY    57  43  58 SE6       30.19F
PETERSBURG*    CLOUDY    58  53  82 E6        30.19S
HANOVER        CLOUDY    56  50  80 E3        30.20S
TAPPAHANNOCK*  MOCLDY    56  50  80 CALM      30.21S
QUINTON*       CLOUDY    56  51  84 E9G18     30.20R
CHARLOTTSVILLE LGT RAIN  56  52  86 CALM      30.17S
GORDONSVILLE*  CLOUDY    55  52  90 CALM      30.18S
ORANGE*        LGT RAIN  55  54  94 CALM      30.21R
LOUISA*        DRIZZLE   59  55  88 CALM      30.17S
BUMPASS*       CLOUDY    55  52  89 E5        30.18S
FARMVILLE*     CLOUDY    59  55  88 CALM      30.16S
CREWE*         CLOUDY    56  56 100 E5        30.16F
FORT PICKETT*  NOT AVBL
CHASE CITY*    CLOUDY    56  55  94 CALM      30.16R
CLARKSVILLE*   CLOUDY    57  55  94 E5        30.15R
SOUTH HILL*    CLOUDY    56  54  91 CALM      30.21S
LAWRENCEVILLE* CLOUDY    57  54  89 CALM      30.16F
EMPORIA*       CLOUDY    55  52  88 NE3       30.19S
$$

VAZ088>098-010100-
SOUTHEAST VIRGINIA

CITY           SKY/WX    TMP DP  RH WIND       PRES   REMARKS
NORFOLK        MOCLDY    54  49  83 E10       30.20R
VIRGINIA BEACH FAIR      56  48  74 NE10      30.19S
NORFOLK NAVAL  MOCLDY    55  50  83 E9        30.22R
WEST POINT*    CLOUDY    56  51  84 E3        30.22R
SALUDA*        CLOUDY    56  50  82 NE3       30.20S
NEWPORT NEWS   MOCLDY    56  50  80 E8        30.20S
LANGLEY AFB    MOCLDY    55  51  84 E9        30.20R
FORT EUSTIS    CLOUDY    57  49  74 E5        30.18R
WILLIAMSBURG*  FAIR      57  52  82 CALM      30.21R
HR EXEC AP*    MOCLDY    55  46  71 E6        30.22R
FRANKLIN*      CLOUDY    57  50  76 NE8       30.19S
US460-WAKEFLD  CLOUDY    57  49  74 CALM      30.19R
$$

VAZ020-022-025-037-045-010100-
WEST CENTRAL AND SOUTHWEST VIRGINIA

CITY           SKY/WX    TMP DP  RH WIND       PRES   REMARKS
STAUNTON*      DRIZZLE   56  55  96 S3        30.18S
WAYNESBORO*    CLOUDY    52  51  95 MISG      30.17R
HOT SPRINGS VA LGT RAIN  49  49 100 S6        30.15R VSB<1/4
LYNCHBURG      LGT RAIN  54  54 100 NE6       30.17R FOG
DANVILLE       CLOUDY    57  54  89 NE6       30.15R
SOUTH BOSTON*  CLOUDY    57  56  94 NE3       30.15S
MARTINSVILLE   CLOUDY    54  53  99 NE5       30.17R FOG
ROANOKE        CLOUDY    55  53  93 SE5       30.17S
BLACKSBURG     CLOUDY    53  53  99 E6        30.18R FOG
DUBLIN*        CLOUDY    55  55 100 E7        30.16R FOG
MARION*        DRIZZLE   58  56  92 E8        30.14R
HILLSVILLE*    CLOUDY    55  55 100 SE3       30.12S FOG
RICHLANDS*     DRIZZLE   60  58  94 SE12G18   30.06F
WISE*          DRIZZLE   61  57  88 S3        30.07R
ABINGDON*      RAIN      64  60  86 E8        30.06R
$$

MDZ021>025-VAZ099-100-010100-
SOUTHERN MARYLAND AND THE DELMARVA PENINSULA

CITY           SKY/WX    TMP DP  RH WIND       PRES   REMARKS
PATUXENT RIVER CLOUDY    55  47  74 CALM      30.21S
BAY BRIDGE APT NOT AVBL
LEONARDTOWN    CLOUDY    52  50  93 CALM      30.22S
DOVER          CLOUDY    52  44  75 E8        30.22S
GEORGETOWN     CLOUDY    50  40  68 E8        30.23F
EASTON         CLOUDY   N/A N/A N/A E5          N/A
CAMBRIDGE      CLOUDY    54  46  76 E8        30.21R
SALISBURY      CLOUDY    51  42  71 E7        30.22F
OCEAN CITY     PTCLDY    51  44  77 NE7       30.24S
WALLOPS ISLAND CLOUDY    52  45  77 E12       30.23S
ACCOMACK*      MOCLDY    50  30  46 E7        30.22S
$$

NCZ012>017-030>032-010100-
NORTH CENTRAL AND EASTERN NORTH CAROLINA

CITY           SKY/WX    TMP DP  RH WIND       PRES   REMARKS
ROANOKE RAPIDS MOCLDY    59  54  82 E6        30.15F
RALEIGH        CLOUDY    61  56  83 E12       30.14R
ELIZABETH CITY CLOUDY    55  52  89 NE12      30.19R
AHOSKIE*       CLOUDY    59  54  83 CALM      30.17S
EDENTON*       CLEAR     59  53  80 E5        30.19R
CURRITUCK*     CLOUDY    55  52  89 NE7       30.20R
KILL DEVIL HLS PTCLDY    54  51  91 NE7       30.17R
MANTEO         NOT AVBL
CAPE HATTERAS  CLOUDY    56  54  93 NE7       30.17R
TARBORO*       CLOUDY    62  56  81 E5        30.16S
GOLDSBORO      CLOUDY    63  63 100 E9        30.12R
WASHINGTON     CLOUDY    61  55  79 NE7       30.16R
GREENVILLE     CLOUDY    63  55  77 E6        30.16R
NEW BERN       CLOUDY    64  56  75 E8        30.16R
WILMINGTON     CLOUDY    65  58  78 E13       30.13R
$$

VAZ048-010100-
ELSEWHERE

CITY           SKY/WX    TMP DP  RH WIND       PRES   REMARKS
HARRISBURG PA  CLOUDY    57  45  64 SE5       30.17F
BALTIMORE      CLOUDY    56  47  71 S3        30.20R
ANNAPOLIS      CLOUDY    56  49  77 MISG      30.21R
ANDREWS AFB    CLOUDY    54  49  84 SE3       30.19R
PHILADELPHIA   CLOUDY    58  43  57 S10       30.23R
HENDERSON NC   CLOUDY    58  58 100 E5        30.15R
GREENSBORO     DRIZZLE   60  59  96 E12       30.11R FOG
ROCKY MOUNT    CLOUDY    60  56  86 E3        30.15R
$$

VAZ100-010100-
MARINE

STATION/POSITION TIME  TEMP    WIND        PRES    WAVE   SWELL
                       AIR SEA DIR/SP/G            HT/PER HT/PER
                 (UTC) (F)     (DEG/KT/KT) (MB)    (FT/S) (FT/S)
BRANDYWINE LGT   2300   51                   N/A
CAPE MAY NJ      2300   51 57                N/A
LEWES DE         2300   51 56                N/A
15NM E FENWICK I 2350   50 51              1023.9S   5/10
OCEAN-CITY-INLET 2300   51 54                N/A
WACHAPREAGUE VA  2300   53 62                N/A
THOMAS POINT MD  0000   56 58  180/  5/  5 1024.2R
GOOSES REEF MD   0000   56 58  160/  2/  4 1023.7S   0
COVE POINT MD    2300   55                   N/A
SOLOMONS ISLAND  2300   56 59                N/A
BISHOPS HEAD MD  2300   57 59                N/A
PINEY POINT MD   2300          140/  4/  5   N/A
POTOMAC MD       0000   56 59   90/  2/  4 1021.9F   0
CAMBRIDGE MD     2300   58 60                N/A
LEWISETTA VA     2300   56 60                N/A
RAPPAHANNOCK LGT 2300           80/ 11/ 12 1023.4S
STINGRAY PT      0000   56 60  100/ 12/ 14 1023.2R   1
YORK RVR RNG VA  2300   57                   N/A
YORKTOWN VA      2300   57 62                N/A
JAMESTOWN VA     0000   57 66  100/  8/ 12   N/A     0
DOMINION TERM VA 2300   56                   N/A
KIPTOPEKE VA     2300      60                N/A
CHES BAY BRIDGE  2300   54 60                N/A
CAPE HENRY VA    2300   53                   N/A
CHESAPEAKE LGHT  2300   52      50/ 15/ 16 1023.2F
WILLOUBY STN VA  2300   55                   N/A
CAPE HENRY BUOY  2312      56                N/A     4/10   2/11
CAPE CHARLES BUO 2326      57                N/A     4/10   3/10
OFFSHORE WE BUOY 2321      54                N/A     5/ 9   5/ 9
64NM E OF VA BCH 2350   53 53   20/ 14/ 16 1022.4R   7/10   7/10
DUCK PIER NC     2300   53 67                N/A
44100 DUCK FRF   2324      54                N/A     5/ 9   2/11
44056 DUCK FRF   2311      59                N/A     5/ 9   2/11
OREGON INLET NC  2300   55 62                N/A
HATTERAS NC      2300   58 69                N/A
DIAMOND SHLS NC  2350   60 73   40/ 17/ 21 1020.6R   5/10   3/10
CAPE LOOKOUT NC  0000   62      60/ 14/ 15 1020.9R
$$




USA.gov is the U.S. government's official web portal to all federal, state and local government web resources and services.